CAPE
1289 1510 1776 2030 2045 1978 1978 2042 2148 2299 2539 2738 2761 2741 2666 2553 2396 2360 2357 2347 2345 2198 1646 1548 1738 1573 1370 1187 954 885 983 918 857 906 848 977 1141 1489 1353 1401 1290 1184 1821
1284 1593 1760 1962 2052 2065 2055 2052 2117 2286 2483 2568 2555 2459 2403 2407 2390 2351 2306 2261 2206 1872 1594 1455 1522 1510 1727 1687 1585 1484 1212 902 747 798 679 637 663 1234 1157 1331 1243 1652 1625
1100 1404 1786 1837 2078 2153 2209 2221 2187 2266 2385 2421 2438 2318 2098 1865 1500 1593 1653 1824 1851 1659 1639 1556 1319 1172 1226 1344 1441 1514 1518 1403 1215 1150 1114 355 160 1323 1084 977 1221 1478 1503
983 860 1210 1446 1594 1773 1814 1853 1858 1909 2091 2096 1895 1675 1344 1173 1096 863 815 807 700 826 888 729 519 297 170 194 269 432 685 868 864 876 581 394 130 1201 1628 1413 1566 1461 1303
577 587 828 978 1091 1272 1313 1380 1454 1479 1489 1479 1368 1163 974 762 600 288 156 114 147 110 48 15 6 0 0 0 0 5 10 51 117 155 266 256 169 1305 1828 1406 1632 1489 1372
153 240 387 601 806 983 846 813 666 636 657 703 625 648 449 221 19 2 0 0 1 0 0 0 0 0 0 0 0 0 0 0 0 0 17 154 185 1234 1566 1416 1372 1183 1047
7 6 69 181 324 357 323 268 206 155 104 85 95 49 3 1 0 0 0 0 0 0 0 0 0 0 0 0 0 0 0 0 0 0 0 9 162 1941 1803 1399 1218 1348 1288
0 0 0 4 1 6 10 5 1 0 0 0 0 0 0 0 0 0 0 0 0 0 0 0 0 0 0 0 0 0 0 0 0 0 0 0 434 1538 1156 1035 858 1098 1157
0 0 0 0 0 0 0 0 0 0 0 0 0 0 0 0 0 0 0 0 0 0 0 0 0 0 0 0 0 0 0 0 0 0 0 0 19 783 784 624 862 736 1094
0 0 0 0 0 0 0 0 0 0 0 0 0 0 0 0 0 0 0 0 0 0 0 0 0 0 0 0 0 0 0 0 0 0 0 0 454 706 438 298 453 312 361
0 0 0 0 0 0 0 0 0 0 0 0 0 0 0 0 0 0 0 0 0 0 0 0 0 0 0 0 0 0 0 0 0 0 0 0 0 0 0 0 0 0 0
0 0 0 0 0 0 0 0 0 0 0 0 0 0 0 0 0 0 0 0 0 0 0 0 0 0 0 0 0 0 0 0 0 0 0 0 0 0 0 0 0 0 0
0 0 0 0 0 0 0 0 0 0 0 0 0 0 0 0 0 0 0 0 0 0 0 0 0 0 0 0 0 0 0 0 0 0 0 0 0 0 0 0 0 0 0
0 0 0 0 0 0 0 0 0 0 0 0 0 0 0 0 0 0 0 0 0 0 0 0 0 0 0 0 0 0 0 0 0 0 0 0 0 0 1 0 0 0 0
0 0 0 0 0 0 0 0 0 0 0 0 0 0 0 0 0 0 0 0 0 0 0 0 0 0 0 0 0 0 0 0 0 0 0 0 7 0 22 32 28 18 18
0 0 0 0 0 0 0 0 0 0 0 0 0 0 0 0 0 0 0 0 0 0 0 0 0 0 0 0 0 0 0 0 0 0 0 0 1 0 0 54 64 69 75
0 0 0 0 0 0 0 0 0 0 0 0 0 0 0 0 0 0 0 0 0 0 0 0 0 0 0 0 0 0 0 0 0 0 0 0 0 11 14 26 40 40 42
0 0 0 0 0 0 0 0 0 0 0 0 0 0 0 0 0 0 0 0 0 0 0 0 0 0 0 0 0 0 0 0 0 0 0 0 0 0 0 12 13 23 25
0 0 0 0 0 0 0 0 0 0 0 0 0 0 0 0 0 0 0 0 0 0 0 0 0 0 0 0 0 0 0 0 0 0 0 0 0 0 0 2 5 14 21
0 0 0 0 0 0 0 0 0 0 0 0 0 0 0 0 0 0 0 0 0 0 0 0 0 0 0 0 0 0 0 0 0 0 0 0 0 0 0 1 1 2 13
0 0 0 0 0 0 0 0 0 0 0 0 0 0 0 0 0 0 0 0 0 0 0 0 0 0 0 0 0 0 0 0 0 0 0 0 0 0 0 0 2 4 4
0 0 0 0 0 0 0 0 0 0 0 0 0 0 0 0 0 0 0 0 0 0 0 0 0 0 0 0 0 0 0 0 0 0 0 0 0 0 0 1 1 3 5
0 0 0 0 0 0 0 0 0 0 0 0 0 0 0 0 0 0 0 0 0 0 0 0 0 0 0 0 0 0 0 0 0 0 0 0 0 0 0 2 1 2 5
0 0 0 0 0 0 0 0 0 0 0 0 0 0 0 0 0 0 0 0 0 0 0 0 0 0 0 0 0 0 0 0 0 0 0 0 0 3 0 0 1 3 0
0 0 0 0 0 0 0 0 0 0 0 0 0 0 0 0 0 0 0 0 0 0 0 0 0 0 0 0 0 0 0 0 0 0 0 0 0 4 0 0 9 12 0
0 0 0 0 0 0 0 0 0 0 0 0 0 0 0 0 0 0 0 0 0 0 0 0 0 0 0 0 0 0 0 0 0 2 0 0 0 4 5 0 0 13 18
CIN
-267 -200 -161 -147 -112 -97 -87 -66 -33 -23 -14 -1 -1 0 0 0 0 -1 -2 0 0 0 -15 -16 -2 -7 -13 -32 -50 -49 -48 -62 -72 -75 -78 -60 -41 -12 -26 -21 -30 -20 -9
-249 -161 -136 -111 -102 -65 -49 -40 -16 -3 0 0 0 0 0 0 0 0 0 -1 0 -1 -7 -6 -2 -4 0 0 -1 -3 -18 -52 -80 -88 -100 -93 -67 -31 -18 -26 -38 -20 -14
-226 -180 -111 -92 -71 -42 -17 -6 -1 0 0 0 0 0 -3 -12 -29 -20 -15 -8 -4 -3 -2 -3 -12 -17 -11 -4 -1 -1 -1 -4 -20 -46 -72 -136 -124 -26 -24 -40 -35 -31 -17
-239 -290 -192 -110 -85 -63 -48 -33 -25 -17 -1 0 -4 -20 -41 -42 -52 -79 -92 -96 -113 -85 -51 -74 -104 -171 -215 -182 -133 -78 -46 -44 -52 -59 -121 -118 -82 -46 -18 -26 -46 -35 -33
-363 -352 -245 -181 -135 -105 -86 -70 -54 -48 -42 -35 -33 -65 -79 -81 -107 -195 -239 -246 -231 -250 -270 -176 -88 0 0 0 0 -76 -59 -221 -180 -180 -156 -129 -106 -26 -19 -37 -56 -53 -35
-480 -410 -317 -243 -189 -152 -176 -176 -196 -179 -155 -143 -145 -142 -178 -229 -347 -1 0 0 0 0 0 0 0 0 0 0 0 0 0 0 0 0 -215 -138 -74 -10 -29 -45 -73 -92 -74
-575 -337 -497 -406 -331 -330 -350 -371 -391 -399 -398 -382 -349 -278 0 0 0 0 0 0 0 0 0 0 0 0 0 0 0 0 0 0 0 0 0 -89 -101 -11 -10 -36 -56 -55 -73
0 0 0 0 0 -228 -285 -299 -323 0 0 0 0 0 0 0 0 0 0 0 0 0 0 0 0 0 0 0 0 0 0 0 0 0 0 0 -78 -20 -16 -35 -42 -42 -44
0 0 0 0 0 0 0 0 0 0 0 0 0 0 0 0 0 0 0 0 0 0 0 0 0 0 0 0 0 0 0 0 0 0 0 0 -3 -18 -11 -24 -31 -25 -17
0 0 0 0 0 0 0 0 0 0 0 0 0 0 0 0 0 0 0 0 0 0 0 0 0 0 0 0 0 0 0 0 0 0 0 0 -15 -18 -10 -30 -19 -27 -41
0 0 0 0 0 0 0 0 0 0 0 0 0 0 0 0 0 0 0 0 0 0 0 0 0 0 0 0 0 0 0 0 0 0 0 0 0 0 0 0 0 0 0
0 0 0 0 0 0 0 0 0 0 0 0 0 0 0 0 0 0 0 0 0 0 0 0 0 0 0 0 0 0 0 0 0 0 0 0 0 0 0 0 0 0 0
0 0 0 0 0 0 0 0 0 0 0 0 0 0 0 0 0 0 0 0 0 0 0 0 0 0 0 0 0 0 0 0 0 0 0 0 0 0 0 0 0 0 0
0 0 0 0 0 0 0 0 0 0 0 0 0 0 0 0 0 0 0 0 0 0 0 0 0 0 0 0 0 0 0 0 0 0 0 0 0 0 0 0 0 0 0
0 0 0 0 0 0 0 0 0 0 0 0 0 0 0 0 0 0 0 0 0 0 0 0 0 0 0 0 0 0 0 0 0 0 0 0 -4 0 0 0 0 0 0
0 0 0 0 0 0 0 0 0 0 0 0 0 0 0 0 0 0 0 0 0 0 0 0 0 0 0 0 0 0 0 0 0 0 0 0 -5 0 0 0 0 0 0
0 0 0 0 0 0 0 0 0 0 0 0 0 0 0 0 0 0 0 0 0 0 0 0 0 0 0 0 0 0 0 0 0 0 0 0 0 0 0 -9 -1 0 -1
0 0 0 0 0 0 0 0 0 0 0 0 0 0 0 0 0 0 0 0 0 0 0 0 0 0 0 0 0 0 0 0 0 0 0 0 0 0 0 0 0 0 0
0 0 0 0 0 0 0 0 0 0 0 0 0 0 0 0 0 0 0 0 0 0 0 0 0 0 0 0 0 0 0 0 0 0 0 0 0 0 0 0 0 0 0
0 0 0 0 0 0 0 0 0 0 0 0 0 0 0 0 0 0 0 0 0 0 0 0 0 0 0 0 0 0 0 0 0 0 0 0 0 0 0 0 0 0 0
0 0 0 0 0 0 0 0 0 0 0 0 0 0 0 0 0 0 0 0 0 0 0 0 0 0 0 0 0 0 0 0 0 0 0 0 0 0 0 0 0 0 0
0 0 0 0 0 0 0 0 0 0 0 0 0 0 0 0 0 0 0 0 0 0 0 0 0 0 0 0 0 0 0 0 0 0 0 0 0 0 0 0 0 0 0
0 0 0 0 0 0 0 0 0 0 0 0 0 0 0 0 0 0 0 0 0 0 0 0 0 0 0 0 0 0 0 0 0 0 0 0 0 0 0 0 0 0 0
0 0 0 0 0 0 0 0 0 0 0 0 0 0 0 0 0 0 0 0 0 0 0 0 0 0 0 0 0 0 0 0 0 0 0 0 0 0 0 -1 0 0 0
0 0 0 0 0 0 0 0 0 0 0 0 0 0 0 0 0 0 0 0 0 0 0 0 0 0 0 0 0 0 0 0 0 0 0 0 0 0 0 -1 -5 0 0
0 0 0 0 0 0 0 0 0 0 0 0 0 0 0 0 0 0 0 0 0 0 0 0 0 0 0 0 0 0 0 -1 0 0 0 0 0 0 0 0 0 0 0
Wind_Speed
6 4 11 18 16 14 14 15 14 13 15 14 14 14 13 13 12 12 12 11 10 11 11 10 9 9 8 9 9 8 8 8 9 9 9 9 8 5 2 4 6 7 8
10 8 12 15 17 15 14 15 14 14 14 14 14 14 13 12 13 12 11 11 10 10 10 10 10 10 10 9 8 8 8 9 9 9 9 7 8 7 2 3 5 6 7
11 10 12 15 18 16 15 15 14 14 15 15 14 15 15 15 15 15 15 15 15 14 13 12 12 12 11 10 10 9 8 9 11 12 14 5 5 7 4 4 4 7 4
11 11 12 17 17 19 18 18 17 17 18 17 16 16 16 15 15 14 15 13 12 13 12 11 11 9 9 9 8 9 10 10 10 13 9 6 5 9 7 10 10 6 4
11 13 13 16 16 19 19 19 17 17 17 17 17 17 17 15 15 15 14 12 11 10 10 10 10 10 10 10 9 9 10 11 11 10 8 9 5 9 11 10 9 8 5
10 14 13 16 17 19 20 20 20 20 18 19 17 18 17 16 15 15 15 13 12 12 11 11 10 10 11 11 11 10 10 11 13 7 8 8 8 7 11 9 8 10 8
10 12 12 17 18 20 21 21 20 19 19 19 18 18 15 16 15 14 14 13 12 11 11 11 10 11 11 10 10 10 9 9 6 6 9 8 8 8 10 8 7 6 8
11 13 11 19 21 19 19 18 18 18 17 17 17 17 15 16 14 13 13 12 11 10 11 11 10 10 10 11 10 9 9 10 7 6 8 9 10 2 1 2 1 1 2
10 11 9 10 17 18 16 17 16 16 16 15 14 13 15 17 12 13 10 10 9 8 8 9 9 9 10 11 11 10 10 11 7 5 8 7 11 1 6 1 2 5 5
8 8 9 9 9 8 8 15 14 13 13 13 9 10 12 16 11 12 8 7 7 6 5 7 8 10 11 11 12 7 10 11 7 6 4 5 20 19 16 18 16 14 13
8 8 8 8 7 6 5 9 13 14 12 9 6 6 5 4 6 5 6 4 4 9 2 9 7 12 12 12 13 13 10 3 5 4 3 13 17 17 16 15 14 13 15
8 6 8 9 9 7 7 6 5 6 4 4 5 5 4 6 4 3 3 3 1 13 11 12 13 12 8 4 4 8 4 5 5 6 3 11 18 16 15 15 14 14 14
9 5 6 8 9 8 7 4 2 3 4 4 6 5 5 4 4 3 3 4 4 9 4 6 6 4 6 4 4 4 5 5 3 4 7 11 16 17 17 15 15 15 15
9 7 7 7 7 7 5 4 5 5 4 4 5 7 5 4 5 4 4 5 5 4 5 5 4 5 6 6 6 6 6 5 3 3 5 13 16 20 18 15 13 14 15
12 8 7 6 5 7 8 5 5 6 6 5 5 6 5 5 4 4 4 4 3 3 4 5 5 5 6 6 6 6 6 6 5 3 3 18 23 24 22 21 18 16 16
12 9 7 7 5 7 7 7 5 7 7 6 5 5 6 4 4 5 5 4 4 4 4 4 4 5 5 5 6 6 6 5 5 6 5 5 14 19 23 23 23 22 24
11 9 7 6 7 8 8 6 5 6 7 5 4 6 6 6 6 6 4 4 4 4 6 5 6 5 5 5 6 5 5 6 7 7 7 9 10 19 27 28 27 27 27
13 10 8 8 7 7 7 5 5 6 6 5 5 4 6 6 6 6 4 4 4 5 5 4 4 4 4 4 5 5 4 5 6 11 12 10 10 9 16 23 24 25 25
14 11 8 8 7 7 7 6 6 7 7 5 5 4 6 6 6 6 4 4 4 4 4 4 3 3 3 5 4 4 4 5 10 11 13 13 13 12 8 17 21 23 24
12 11 10 7 7 7 5 6 5 6 5 5 5 5 6 5 6 5 4 5 4 4 4 4 5 5 4 5 5 5 5 7 9 9 10 10 12 12 11 12 10 11 22
15 14 12 10 7 5 3 4 5 5 5 4 5 6 6 5 6 6 4 5 4 5 4 6 3 5 8 7 4 4 5 8 9 7 8 8 11 10 11 10 9 8 9
15 14 13 11 9 6 6 4 4 6 4 5 4 5 5 5 4 5 5 5 6 5 6 7 6 3 4 7 3 1 2 2 5 9 8 8 8 7 9 11 11 12 10
17 16 14 12 10 4 8 8 6 7 6 4 3 4 3 5 5 6 6 6 6 5 4 6 6 7 4 5 8 4 3 1 3 3 8 7 7 6 7 10 12 12 12
14 14 14 12 10 8 9 9 11 5 6 4 4 4 4 6 6 6 6 6 6 4 6 5 6 5 4 5 3 6 9 4 3 3 3 5 3 8 8 8 11 11 13
13 9 11 11 8 7 6 7 5 6 6 4 6 7 6 5 6 6 6 6 6 5 6 6 6 6 4 4 4 3 4 5 4 4 2 5 3 5 4 5 7 5 8
12 12 11 10 7 8 7 8 9 12 9 7 5 5 4 4 4 6 6 6 6 6 5 5 5 6 5 5 5 5 6 4 4 3 2 3 4 3 4 5 7 7 6
Wind_Direction
77 96 108 109 104 98 93 92 87 85 89 96 98 98 92 88 88 88 85 82 78 76 72 66 59 53 46 44 40 27 20 14 4 351 349 352 330 305 59 42 45 111 96
103 101 99 103 106 102 98 95 93 92 93 94 93 91 88 85 81 74 74 71 70 67 61 51 41 34 25 36 29 22 12 358 349 334 328 328 304 281 288 97 81 90 85
96 88 95 92 97 101 101 98 97 96 95 93 92 89 82 80 76 73 69 67 66 63 57 51 42 32 24 21 17 12 7 356 343 332 321 309 269 249 197 172 120 101 105
102 91 94 89 92 93 92 93 95 101 97 92 87 85 86 80 78 79 72 71 72 65 54 47 42 35 26 22 16 7 2 358 348 332 315 306 286 207 219 190 144 130 135
87 90 86 93 93 94 93 91 92 88 85 87 88 86 83 81 78 78 73 69 67 61 55 46 35 28 21 20 15 5 355 349 336 324 308 311 291 180 186 194 151 146 166
93 93 91 94 97 96 100 99 96 92 90 87 91 88 84 81 78 74 72 64 60 56 49 39 27 20 11 4 4 2 355 347 331 322 314 314 330 224 193 179 163 144 132
99 93 89 93 91 93 96 96 96 94 93 93 91 90 85 83 75 71 68 61 50 47 42 31 15 10 357 351 351 343 339 334 337 323 314 318 335 223 201 178 173 152 151
100 95 96 98 92 91 94 96 95 97 100 101 103 102 100 86 80 71 64 58 48 40 36 23 2 360 347 341 337 328 322 321 328 313 309 311 311 299 213 143 233 178 163
94 94 92 92 99 96 93 95 99 100 100 102 105 113 109 105 97 81 66 62 52 46 35 15 358 351 350 343 329 320 310 331 329 312 309 313 302 349 351 303 4 325 340
101 103 103 98 99 102 116 117 115 109 110 112 114 109 109 102 108 89 86 77 64 56 28 356 341 353 357 349 1 316 324 348 332 328 331 14 36 36 33 41 34 10 360
130 130 125 120 119 117 115 129 122 116 110 109 110 136 133 125 104 106 114 104 35 34 346 351 13 38 24 6 13 19 17 355 343 354 36 35 26 20 19 21 17 8 358
140 137 142 143 145 156 142 142 139 123 120 78 48 73 87 86 55 134 121 113 19 44 25 20 34 26 16 2 4 13 8 359 355 359 27 25 13 7 6 4 0 354 348
153 156 163 158 166 174 150 167 144 108 92 74 46 22 51 82 63 62 55 39 39 35 15 22 20 14 2 7 9 6 5 6 3 353 350 6 8 5 357 352 348 349 349
154 159 184 187 178 210 148 148 135 118 105 83 53 33 57 61 55 52 50 46 46 20 18 24 13 356 359 359 6 14 15 3 351 353 355 2 2 4 1 354 353 351 349
156 164 187 178 164 119 104 118 94 90 89 84 58 40 57 60 67 65 59 55 49 29 26 18 9 2 357 356 17 16 360 351 359 16 14 35 57 39 34 25 15 10 357
150 160 176 151 127 108 104 99 107 98 94 78 65 54 52 61 78 74 54 38 25 32 23 20 14 6 353 15 10 352 344 344 6 41 57 36 48 45 33 33 34 31 29
148 153 149 127 101 103 109 105 103 113 102 94 80 57 48 43 61 82 67 32 3 41 38 20 8 8 9 14 355 339 336 8 36 58 39 35 25 46 45 44 39 33 29
137 127 128 112 114 107 109 108 100 106 108 104 91 74 54 42 58 78 65 27 10 51 41 23 11 360 15 19 340 332 7 57 56 60 56 47 43 34 37 38 41 33 30
128 126 114 111 108 104 99 102 98 98 94 92 80 74 56 44 43 84 64 24 51 59 36 19 0 32 21 359 335 3 25 34 53 64 59 53 47 39 30 31 38 34 29
121 111 109 108 113 109 108 102 90 91 85 83 78 68 58 44 49 78 70 48 69 66 40 17 24 17 27 346 4 23 47 59 71 67 63 58 54 43 34 26 29 23 26
124 124 125 129 145 138 136 133 120 123 108 86 83 84 71 52 59 65 72 57 61 68 60 36 26 37 29 6 51 24 49 63 63 72 67 60 49 42 38 32 29 19 20
136 137 142 152 172 180 164 159 137 135 112 117 106 101 97 78 77 79 80 62 62 67 50 43 44 39 37 29 48 30 22 7 30 58 53 62 49 42 37 35 34 21 21
147 148 151 162 187 166 129 117 109 108 111 106 104 99 95 87 75 71 65 66 65 62 68 51 46 43 49 25 39 98 65 20 333 22 56 42 58 47 40 36 31 26 20
151 148 153 163 137 148 134 130 145 139 148 147 148 126 110 93 76 74 71 73 78 63 59 58 50 54 62 42 13 32 61 73 75 349 20 32 68 58 51 45 34 34 25
142 132 126 128 127 111 148 139 128 122 121 132 129 121 108 88 81 80 78 74 70 69 70 80 63 67 63 76 63 29 46 61 29 62 43 352 8 78 55 49 42 32 27
130 129 124 115 106 100 101 121 129 134 141 132 132 134 135 110 88 80 81 77 75 72 76 90 83 84 82 90 82 63 67 66 40 35 28 324 332 91 70 53 45 20 15